TimeCST,TemperatureF,Dew PointF,Humidity,Sea Level PressureIn,VisibilityMPH,Wind Direction,Wind SpeedMPH,Gust SpeedMPH,PrecipitationIn,Events,Conditions,WindDirDegrees,DateUTC
12:00 AM,71,56,48,29.87,12,East,13.8,,,,Scattered Clouds,80,2013-01-26 06:00:00
12:00 AM,69.8,55.4,60,30.05,6.2,East,13.8,-,N/A,,Scattered Clouds,80,2013-01-26 06:00:00
1:00 AM,69.8,55.4,60,30.03,6.2,East,11.5,23.0,N/A,,Scattered Clouds,80,2013-01-26 07:00:00
2:00 AM,69.8,55.4,60,30.02,6.2,ESE,11.5,23.0,N/A,,Scattered Clouds,110,2013-01-26 08:00:00
3:00 AM,69,56,54,29.85,12,ESE,15.0,,,,Scattered Clouds,110,2013-01-26 09:00:00
3:00 AM,68.0,55.4,64,30.00,6.2,ESE,15.0,-,N/A,,Scattered Clouds,110,2013-01-26 09:00:00
4:00 AM,68.0,57.2,68,30.01,6.2,East,13.8,-,N/A,,Scattered Clouds,100,2013-01-26 10:00:00
5:00 AM,68.0,57.2,68,30.01,6.2,East,16.1,28.8,N/A,,Partly Cloudy,100,2013-01-26 11:00:00
6:00 AM,68,57,60,29.89,12,ESE,11.5,,,,Scattered Clouds,110,2013-01-26 12:00:00
6:00 AM,68.0,57.2,68,30.02,6.2,ESE,11.5,23.0,N/A,,Scattered Clouds,110,2013-01-26 12:00:00
7:00 AM,69.8,57.2,64,30.03,6.2,ESE,15.0,26.5,N/A,,Scattered Clouds,110,2013-01-26 13:00:00
8:00 AM,69.8,59.0,68,30.05,6.2,ESE,12.7,25.3,N/A,,Mostly Cloudy,110,2013-01-26 14:00:00
9:00 AM,72,59,55,29.92,12,East,17.3,,,,Scattered Clouds,100,2013-01-26 15:00:00
9:00 AM,71.6,59.0,64,30.07,6.2,East,17.3,28.8,N/A,,Mostly Cloudy,100,2013-01-26 15:00:00
10:00 AM,77.0,55.4,47,30.07,6.2,East,15.0,26.5,N/A,,Mostly Cloudy,90,2013-01-26 16:00:00
11:00 AM,78.8,57.2,47,30.05,6.2,East,18.4,29.9,N/A,,Scattered Clouds,100,2013-01-26 17:00:00
12:00 PM,81,57,33,29.85,12,East,16.1,,,,Scattered Clouds,80,2013-01-26 18:00:00
12:00 PM,80.6,57.2,45,30.04,6.2,East,16.1,27.6,N/A,,Scattered Clouds,80,2013-01-26 18:00:00
1:00 PM,80.6,57.2,45,30.02,6.2,East,15.0,26.5,N/A,,Scattered Clouds,100,2013-01-26 19:00:00
2:00 PM,80.6,57.2,45,29.99,6.2,East,15.0,26.5,N/A,,Scattered Clouds,90,2013-01-26 20:00:00
3:00 PM,80,57,35,29.81,12,East,11.5,,,,Scattered Clouds,100,2013-01-26 21:00:00
3:00 PM,80.6,57.2,45,29.98,6.2,East,11.5,23.0,N/A,,Scattered Clouds,100,2013-01-26 21:00:00
4:00 PM,78.8,59.0,51,29.98,6.2,East,11.5,23.0,N/A,,Scattered Clouds,100,2013-01-26 22:00:00
5:00 PM,77.0,59.0,54,29.99,6.2,East,11.5,23.0,N/A,,Scattered Clouds,100,2013-01-26 23:00:00
6:00 PM,72,59,55,29.87,12,East,11.5,,,,Scattered Clouds,100,2013-01-27 00:00:00
6:00 PM,71.6,59.0,64,30.01,6.2,East,11.5,23.0,N/A,,Partly Cloudy,100,2013-01-27 00:00:00
7:00 PM,71.6,59.0,64,30.02,6.2,East,11.5,23.0,N/A,,Partly Cloudy,100,2013-01-27 01:00:00
8:00 PM,69.8,59.0,68,30.03,6.2,ESE,11.5,23.0,N/A,,Partly Cloudy,110,2013-01-27 02:00:00
9:00 PM,69,57,57,29.91,12,East,11.5,,,,,100,2013-01-27 03:00:00
9:00 PM,69.8,57.2,64,30.04,-9999.0,East,11.5,23.0,N/A,,Clear,100,2013-01-27 03:00:00
10:00 PM,68.0,57.2,68,30.05,-9999.0,East,15.0,26.5,N/A,,Clear,100,2013-01-27 04:00:00
11:00 PM,68.0,57.2,68,30.05,-9999.0,East,12.7,24.2,N/A,,Clear,100,2013-01-27 05:00:00